Location: Csohesd
(46.2500°N, 22.6167°E)
Time: 14:23:21
(UTC+00:00)

Tiangong - Visible Passes

Search period start: 04 December 2022 00:00
Search period end: 14 December 2022 00:00
Orbit: 386 x 394 km, 41.5° (Epoch: 04 December)

Date Brightness Start Highest point End Pass type
(mag) Time Alt. Az. Time Alt. Az. Time Alt. Az.
04 Dec -0.9 16:27:44 10° WSW 16:30:39 33° S 16:31:18 30° SSE visible
05 Dec -0.6 15:29:54 10° SW 15:32:43 29° S 15:35:33 10° ESE visible
05 Dec -0.1 17:06:23 10° WSW 17:08:20 26° SW 17:08:20 26° SW visible
06 Dec -0.8 16:08:23 10° WSW 16:11:19 34° S 16:13:04 19° SE visible
06 Dec 1.5 17:45:20 10° WSW 17:45:23 10° WSW 17:45:23 10° WSW visible
07 Dec -0.4 16:47:06 10° WSW 16:49:51 26° SSW 16:50:08 26° S visible
08 Dec -0.5 15:48:56 10° WSW 15:51:49 31° S 15:54:41 10° ESE visible
08 Dec 1.0 17:26:22 10° WSW 17:27:16 13° SW 17:27:16 13° SW visible
09 Dec 0.3 16:27:48 10° WSW 16:30:12 20° SSW 16:32:09 12° SSE visible
10 Dec 0.0 15:29:26 10° WSW 15:32:07 25° SSW 15:34:49 10° SE visible
11 Dec 0.8 16:08:39 10° WSW 16:10:20 14° SSW 16:12:01 10° S visible
